Vertical_Velocity
-2 3 2 0 -0 -0 -1 -1 -0 -3 -2 -1 1 1 1 1 1 0 -0 -3 -2 -5 -3 2 -1 -0 -0 1 -2 0 -0 -3 -1 -2 -1 -2 -3 -2 -1 0 -0 -1 -0
-6 5 -2 2 0 -0 1 0 -1 -2 -3 -1 0 -1 -1 0 1 1 -3 -1 -1 -1 -4 2 -2 -0 0 -1 -2 -1 -2 -1 1 0 -0 -2 2 -1 1 -0 -1 -1 1
4 15 -1 1 2 1 1 -1 -1 -2 -3 -1 -1 1 -1 -2 1 1 -2 -2 -1 -3 -2 -0 -2 1 2 -1 -3 -1 0 -3 -1 -1 -2 -1 -1 1 1 -1 -1 -1 0
7 -11 12 1 1 1 -1 -0 -1 -2 -2 0 1 -2 -0 -2 -1 0 -2 -1 -2 -0 -0 -1 -2 1 -0 0 -0 -3 2 -1 -1 -1 -0 3 2 0 -1 1 -1 0 1
-2 -6 8 5 -1 -2 1 1 -1 -4 -1 2 2 1 -0 -2 -0 -1 2 -3 1 -2 -1 -2 -2 1 -0 -1 -2 0 -0 -2 -1 0 -3 -2 1 1 3 -0 2 -0 -3
0 -2 -3 0 0 -1 3 -1 -2 -1 0 0 3 0 3 -2 -1 -0 0 -1 -1 -2 -1 -0 0 -1 1 2 -3 -1 -1 -2 -4 -1 0 -3 -2 -2 0 -1 1 -2 1
3 4 -1 -2 0 0 -0 -2 -2 3 -2 0 2 1 2 1 0 -0 0 0 1 -1 -1 -1 3 2 1 1 1 -2 -1 -3 -2 -1 -0 -1 -3 -1 -2 -1 3 0 -1
-2 3 -3 3 1 -1 -2 -2 0 -0 0 -0 1 -0 0 0 -0 0 -1 1 -1 -2 1 -1 -0 2 -0 0 -0 1 1 -0 1 1 0 -2 -3 -2 -0 -2 -1 0 -2
1 5 4 1 6 -5 1 11 4 -2 6 3 0 -1 3 2 0 -2 0 1 2 1 0 -0 -0 -1 1 -1 -2 -0 2 -1 1 -3 -2 -3 0 -3 1 -3 -2 -3 -2
6 17 12 -1 11 9 -0 -1 -2 3 5 9 -1 -0 1 4 -0 0 -0 4 -1 0 1 3 0 -1 -2 -0 0 -1 -1 -1 -3 1 0 -0 -2 -2 -5 -1 1 0 2
10 -2 5 3 4 4 11 22 -4 -2 7 7 3 0 4 2 1 3 2 -1 0 1 3 2 -2 -1 -2 -2 -3 -1 -4 -3 -1 -3 -2 -3 -4 -3 -2 0 2 -2 -2
1 -3 1 6 -0 -0 3 3 12 5 15 1 4 6 1 -2 -2 -1 4 1 -1 1 0 1 -2 3 -2 2 -1 -2 -1 -2 -3 -2 0 2 -2 2 0 -3 -0 -3 -2
-3 -0 -0 -1 -13 6 -1 7 9 5 5 9 4 4 -2 -2 -4 -1 -0 -1 -0 2 3 2 1 -1 0 1 -2 -5 -1 -0 2 -2 -3 -0 -1 -0 -1 -2 -5 -2 -2
-1 2 -4 -4 0 -4 -0 10 14 5 4 11 7 3 -0 -5 -4 1 -1 -2 -2 -2 0 2 1 -0 2 -1 -2 2 -2 -2 -3 -5 0 -6 -1 -2 -3 5 -1 -1 -3
-2 -2 3 0 -1 2 2 2 6 12 9 8 5 -1 -3 -2 -5 0 0 1 1 3 -3 0 -0 -3 -1 4 -1 -4 -1 -3 -2 -6 -4 -7 -4 -4 -2 -4 1 4 1
-2 -1 0 5 6 8 5 10 13 10 6 -4 -4 -5 -2 0 -3 3 3 0 0 1 -1 -1 -0 -1 -1 -3 -1 -2 0 -2 -1 -4 -2 2 -3 -3 -2 -4 -4 1 4
4 8 -1 -2 -4 1 5 3 2 -5 -6 0 -2 -4 3 2 -0 2 3 0 -0 3 -0 -5 1 -2 -3 -2 -0 2 -3 -6 2 -3 -2 -7 -3 -3 -1 -1 -3 -4 -2
-4 0 2 5 -4 1 1 -2 -4 -0 -2 1 -2 2 -1 1 8 -1 -1 2 1 -1 -1 -1 -2 -5 -2 -2 -2 0 2 -0 -0 -3 -3 -3 -3 -9 3 -5 -5 -5 -5
2 -3 -1 -4 -1 -4 0 -2 -1 0 3 2 2 3 -4 7 2 -0 -3 1 -7 -0 -0 -3 -3 -3 -1 -4 -0 -3 1 -1 -0 1 -0 1 0 -1 -11 1 -3 -1 -5
0 -1 -5 -5 0 4 5 5 3 -0 4 1 1 3 -7 8 -3 2 1 -2 -1 -4 -3 2 -3 -2 -4 -2 -4 -3 -3 -1 -1 -1 -2 -2 -1 -1 1 -4 -4 -4 -2
-2 -3 -0 -0 -1 5 0 1 -3 -0 1 -1 2 1 -1 3 -2 1 -4 -1 -1 -1 -3 -1 -2 -3 -1 -3 -7 -6 8 -6 -1 -4 -4 -6 -0 -0 -3 -4 -3 -4 -19
-0 1 2 -2 2 1 2 0 -1 1 1 1 3 -1 2 2 -2 -2 2 -3 2 -4 -3 -5 -2 -2 -4 -0 -5 0 -16 -11 27 8 -6 -2 0 -6 -6 2 -4 -3 1
-3 -4 -2 -2 -2 -1 -3 -4 -2 3 2 -1 2 2 5 -2 2 1 1 -2 1 -5 -3 -0 2 -2 -3 4 -0 -7 -8 3 -5 -11 12 -5 -2 -3 -0 -6 -1 0 -1
0 1 1 -1 -1 0 0 2 2 -1 3 -2 1 -1 4 9 3 2 -2 0 -4 -2 1 -1 -3 -1 2 -4 0 -3 0 0 -6 -8 -16 8 11 -4 -2 4 -7 -2 2
1 -2 -3 -4 -0 -2 1 -1 -2 -2 -3 -3 1 1 0 -1 3 -2 -1 -3 1 -1 -2 -1 -2 -2 0 -1 -2 -1 3 0 4 -3 4 -6 -20 -4 2 -2 0 -2 -8
1 1 1 4 4 4 6 3 25 3 -4 1 -0 -2 0 0 2 2 1 1 -1 -1 1 -1 -0 1 0 -0 -1 1 -2 -0 -7 1 3 2 3 -1 6 -10 -6 -4 -3
Height
5832 5835 5837 5838 5840 5841 5842 5843 5844 5845 5846 5848 5848 5849 5848 5849 5848 5847 5847 5847 5847 5847 5847 5846 5846 5848 5847 5847 5846 5846 5844 5842 5842 5842 5842 5840 5838 5838 5837 5836 5835 5833 5833
5828 5830 5832 5834 5835 5837 5837 5838 5839 5841 5843 5844 5845 5845 5845 5845 5845 5845 5844 5844 5844 5844 5843 5844 5844 5845 5845 5844 5844 5842 5843 5841 5842 5841 5839 5838 5836 5835 5834 5833 5832 5832 5832
5821 5826 5827 5829 5829 5831 5833 5833 5835 5837 5838 5840 5841 5842 5842 5841 5842 5842 5842 5842 5842 5841 5841 5841 5842 5841 5842 5843 5843 5842 5842 5840 5838 5837 5836 5835 5834 5833 5830 5830 5829 5830 5829
5812 5820 5822 5824 5825 5826 5828 5829 5830 5832 5834 5836 5836 5838 5838 5838 5838 5839 5839 5838 5839 5839 5839 5838 5838 5839 5840 5841 5841 5840 5840 5838 5835 5833 5832 5832 5830 5830 5829 5828 5827 5827 5827
5812 5816 5816 5819 5821 5821 5823 5824 5826 5828 5830 5832 5832 5834 5834 5834 5834 5835 5836 5836 5835 5835 5835 5834 5836 5838 5839 5840 5839 5837 5836 5834 5832 5832 5831 5829 5828 5827 5826 5825 5825 5825 5823
5809 5812 5813 5814 5815 5817 5818 5821 5823 5824 5825 5827 5828 5830 5830 5830 5831 5832 5832 5832 5832 5832 5831 5832 5833 5836 5837 5836 5836 5834 5832 5831 5829 5828 5828 5827 5825 5824 5823 5822 5821 5821 5821
5804 5806 5807 5808 5809 5812 5815 5816 5817 5820 5821 5823 5823 5826 5827 5827 5827 5828 5827 5828 5829 5829 5830 5831 5833 5834 5834 5833 5833 5831 5830 5828 5826 5825 5824 5823 5821 5820 5821 5819 5818 5817 5815
5800 5801 5802 5803 5805 5808 5810 5810 5812 5815 5817 5818 5819 5822 5823 5823 5822 5822 5823 5824 5825 5826 5828 5830 5831 5831 5831 5830 5829 5827 5827 5826 5824 5822 5821 5820 5819 5817 5815 5814 5813 5812 5811
5796 5795 5797 5800 5800 5802 5804 5807 5807 5809 5810 5813 5814 5816 5818 5819 5820 5819 5819 5821 5821 5823 5825 5827 5829 5828 5827 5826 5824 5824 5824 5823 5820 5819 5817 5816 5815 5814 5812 5810 5808 5806 5805
5789 5790 5790 5795 5795 5795 5795 5797 5800 5802 5804 5807 5808 5810 5812 5814 5814 5815 5816 5818 5818 5821 5823 5825 5825 5825 5823 5822 5822 5822 5820 5819 5817 5815 5813 5811 5809 5807 5806 5804 5803 5800 5798
5785 5786 5787 5788 5788 5788 5791 5790 5793 5795 5796 5798 5802 5805 5807 5808 5809 5812 5815 5816 5817 5819 5821 5821 5821 5820 5819 5820 5819 5818 5816 5814 5813 5811 5810 5808 5805 5802 5799 5796 5794 5792 5790
5780 5780 5781 5783 5784 5784 5783 5785 5784 5785 5791 5792 5796 5799 5802 5803 5807 5810 5813 5816 5816 5817 5819 5818 5818 5817 5818 5816 5815 5813 5812 5811 5810 5806 5804 5801 5798 5796 5792 5789 5786 5784 5782
5775 5775 5775 5775 5776 5775 5777 5777 5782 5784 5789 5789 5791 5794 5797 5799 5804 5808 5810 5812 5813 5814 5814 5816 5816 5814 5814 5813 5811 5810 5808 5806 5803 5800 5799 5795 5792 5789 5787 5784 5780 5776 5773
5771 5771 5770 5771 5773 5775 5777 5780 5779 5780 5782 5785 5788 5792 5795 5799 5803 5808 5810 5810 5811 5811 5813 5813 5812 5812 5810 5810 5808 5806 5803 5801 5798 5796 5792 5789 5786 5782 5779 5777 5773 5769 5766
5764 5764 5765 5765 5766 5768 5773 5773 5774 5775 5779 5783 5787 5791 5796 5799 5804 5806 5807 5808 5809 5809 5810 5811 5810 5809 5807 5805 5803 5801 5798 5795 5793 5789 5785 5781 5778 5774 5770 5767 5764 5761 5757
5757 5759 5760 5760 5762 5764 5766 5768 5772 5775 5777 5781 5786 5793 5795 5798 5803 5803 5805 5806 5806 5806 5808 5806 5806 5804 5802 5800 5797 5795 5792 5789 5785 5780 5776 5772 5767 5764 5760 5756 5753 5751 5749
5756 5754 5756 5758 5759 5762 5766 5769 5772 5774 5779 5783 5787 5789 5794 5798 5799 5802 5803 5803 5804 5805 5804 5803 5802 5800 5797 5794 5792 5789 5785 5780 5775 5771 5766 5762 5758 5755 5751 5747 5744 5741 5738
5760 5761 5761 5763 5761 5769 5769 5769 5773 5779 5782 5785 5787 5790 5793 5795 5798 5799 5800 5800 5801 5801 5801 5799 5797 5795 5791 5788 5785 5781 5776 5770 5766 5762 5758 5753 5748 5745 5742 5738 5734 5732 5729
5763 5765 5764 5766 5766 5767 5769 5774 5776 5779 5782 5784 5787 5789 5792 5793 5797 5796 5798 5799 5798 5796 5796 5794 5793 5788 5783 5780 5777 5772 5767 5762 5758 5754 5749 5745 5740 5735 5731 5729 5726 5723 5719
5766 5766 5767 5768 5767 5769 5773 5775 5778 5781 5782 5786 5787 5791 5790 5792 5793 5794 5795 5794 5792 5793 5791 5788 5784 5779 5775 5771 5767 5762 5758 5754 5749 5744 5738 5734 5729 5725 5721 5717 5714 5711 5707
5768 5769 5769 5770 5771 5772 5773 5776 5778 5778 5781 5784 5785 5787 5787 5790 5791 5791 5790 5789 5788 5786 5783 5778 5774 5771 5766 5762 5756 5752 5750 5744 5739 5732 5728 5723 5718 5714 5711 5706 5700 5695 5689
5770 5770 5770 5771 5772 5773 5775 5776 5776 5776 5780 5781 5783 5784 5785 5788 5786 5785 5784 5783 5780 5778 5773 5769 5765 5762 5757 5752 5747 5741 5735 5730 5730 5724 5717 5712 5708 5702 5698 5693 5687 5681 5673
5769 5769 5770 5771 5772 5772 5774 5774 5773 5774 5775 5778 5781 5782 5783 5782 5780 5779 5777 5775 5773 5769 5765 5761 5757 5752 5748 5743 5737 5730 5724 5720 5714 5709 5706 5700 5695 5688 5683 5677 5671 5664 5657
5768 5768 5769 5769 5770 5771 5770 5770 5772 5773 5774 5775 5775 5776 5776 5774 5773 5771 5769 5766 5763 5760 5756 5751 5747 5743 5738 5732 5726 5721 5715 5709 5703 5696 5692 5688 5682 5674 5667 5660 5653 5647 5639
5767 5768 5769 5769 5769 5769 5768 5769 5768 5770 5771 5770 5770 5770 5770 5768 5766 5763 5760 5757 5754 5750 5746 5742 5738 5733 5727 5721 5714 5709 5705 5700 5693 5686 5679 5670 5663 5658 5651 5644 5636 5627 5619
5765 5765 5765 5766 5765 5763 5763 5762 5762 5765 5765 5764 5763 5764 5763 5761 5759 5756 5753 5749 5746 5742 5738 5733 5728 5722 5716 5710 5704 5699 5693 5687 5680 5674 5666 5659 5650 5641 5635 5625 5616 5608 5598